Jackson, TN

8:22 AM CDT on July 20, 2017 (GMT -0500)
McKellar-Sipes Regional

Weather History for KMKL - May, 2013

Change the Weather History Date:

Wednesday, May 15, 2013

  Actual Average Record
Temperature  
Mean Temperature 74 °F 68 °F  
Max Temperature 85 °F 80 °F 91 °F (1962)
Min Temperature 62 °F 57 °F 43 °F (1959)
Degree Days  
Heating Degree Days 0 2  
Month to date heating degree days 72 34  
Since 1 July heating degree days 3656 3560  
Cooling Degree Days 9 5  
Month to date cooling degree days 26 55  
Year to date cooling degree days 82 114  
Growing Degree Days 23 (Base 50)    
Moisture  
Dew Point 53 °F    
Average Humidity 49    
Maximum Humidity 72    
Minimum Humidity 26    
Precipitation  
Precipitation 0.00 in 0.19 in 3.00 in (1983)
Month to date precipitation 3.28 2.84  
Year to date precipitation 29.67 20.69  
Snow  
Snow 0.00 in - - ()
Month to date snowfall 0.0  
Snow Depth 0.00 in    
Sea Level Pressure  
Sea Level Pressure 30.03 in    
Wind  
Wind Speed 10 mph (SW)    
Max Wind Speed 21 mph    
Max Gust Speed 26 mph    
Visibility 10 miles    
Events      
T = Trace of Precipitation, MM = Missing Value Source: NWS Daily Summary

Daily Weather History Graph

Daily Weather History Graph

Search for Another Location

Airport or City:

Trip Planner

Search our weather history database for the weather conditions in past years. The results will help you decide how hot, cold, wet, or windy it might be!

Date:

Astronomy

May. 15, 2013 Rise Set
Actual Time 5:50 AM CDT 7:53 PM CDT
Civil Twilight 5:22 AM CDT 8:22 PM CDT
Nautical Twilight 4:47 AM CDT 8:56 PM CDT
Astronomical Twilight 4:10 AM CDT 9:34 PM CDT
Moon 10:24 AM CDT (5/15) No Moon Set
Length of Visible Light 15h 00m
Length of Day
14h 03m
Waxing Crescent, 27% of the Moon is Illuminated
May 15
Waxing Crescent
May 17
First Quarter
May 24
Full
May 31
Last Quarter
Jun 8
New

Hourly Weather History & Observations

Time (CDT) Temp. Heat Index Dew Point Humidity Pressure Visibility Wind Dir Wind Speed Gust Speed Precip Events Conditions
12:53 AM 68.0 °F - 53.1 °F 59% 30.04 in 10.0 mi SSW 9.2 mph - N/A   Clear
1:53 AM 66.9 °F - 52.0 °F 59% 30.04 in 10.0 mi SW 8.1 mph - N/A   Clear
2:53 AM 66.9 °F - 52.0 °F 59% 30.05 in 10.0 mi SW 8.1 mph - N/A   Clear
3:53 AM 64.9 °F - 52.0 °F 63% 30.05 in 10.0 mi SSW 8.1 mph - N/A   Clear
4:53 AM 62.1 °F - 53.1 °F 72% 30.06 in 10.0 mi SSW 5.8 mph - N/A   Clear
5:53 AM 64.0 °F - 54.0 °F 70% 30.07 in 10.0 mi SW 9.2 mph - N/A   Clear
6:53 AM 66.0 °F - 55.0 °F 68% 30.09 in 10.0 mi SW 6.9 mph - N/A   Clear
7:53 AM 69.1 °F - 55.0 °F 61% 30.10 in 10.0 mi SW 9.2 mph - N/A   Clear
8:53 AM 73.0 °F - 53.1 °F 49% 30.11 in 10.0 mi West 12.7 mph 19.6 mph N/A   Clear
9:53 AM 75.0 °F - 52.0 °F 44% 30.11 in 10.0 mi WSW 12.7 mph - N/A   Clear
10:53 AM 79.0 °F - 50.0 °F 36% 30.10 in 10.0 mi WSW 12.7 mph - N/A   Clear
11:53 AM 81.0 °F - 50.0 °F 34% 30.09 in 10.0 mi WSW 9.2 mph - N/A   Clear
12:53 PM 82.0 °F - 45.0 °F 27% 30.07 in 10.0 mi West 13.8 mph 23.0 mph N/A   Clear
1:53 PM 82.9 °F - 51.1 °F 33% 30.04 in 10.0 mi SSW 10.4 mph 18.4 mph N/A   Clear
2:53 PM 82.0 °F 81.2 °F 53.1 °F 37% 30.01 in 10.0 mi SW 10.4 mph - N/A   Clear
3:53 PM 82.9 °F - 52.0 °F 34% 29.99 in 10.0 mi SSW 18.4 mph 25.3 mph N/A   Clear
4:53 PM 84.0 °F 82.5 °F 53.1 °F 34% 29.97 in 10.0 mi SW 15.0 mph 20.7 mph N/A   Clear
5:53 PM 82.0 °F 81.6 °F 55.9 °F 41% 29.96 in 10.0 mi SSW 8.1 mph - N/A   Clear
6:53 PM 79.0 °F - 55.9 °F 45% 29.96 in 10.0 mi SW 9.2 mph - N/A   Clear
7:53 PM 73.9 °F - 57.0 °F 55% 29.97 in 10.0 mi South 5.8 mph - N/A   Clear
8:53 PM 73.0 °F - 55.9 °F 55% 29.98 in 10.0 mi SSW 6.9 mph - N/A   Clear
9:53 PM 73.0 °F - 55.9 °F 55% 29.99 in 10.0 mi SSW 8.1 mph - N/A   Clear
10:53 PM 72.0 °F - 55.9 °F 57% 29.99 in 10.0 mi SSW 8.1 mph - N/A   Clear
11:53 PM 71.1 °F - 55.9 °F 59% 29.99 in 10.0 mi SSW 6.9 mph - N/A   Clear